AFR92 LFMN-LFKB

Flight info

Callsign AFR92
Flight time 0h 38m
Altitude 13000
Route SODRI A3 NORKA
Aircraft A320/M-SDE3FGHIRWY/LB1

Departure

Time 2026-05-08 19:59
Airport Nice-Côte d'Azur Airport (LFMN)

Arrival

Time 2026-05-08 20:37
Airport Bastia-Poretta International airport (LFKB)
Time Latitude Longitude Altitude Speed Heading
2026-05-08 19:37 43.66388 7.20940 25 ft 0 kts 351°
2026-05-08 19:44 43.66386 7.20940 25 ft 2 kts 351°
2026-05-08 19:44 43.66361 7.20946 22 ft 3 kts 351°
2026-05-08 19:45 43.66335 7.20955 23 ft 4 kts 325°
2026-05-08 19:45 43.66319 7.20981 23 ft 4 kts 289°
2026-05-08 19:45 43.66316 7.20996 21 ft 1 kts 285°
2026-05-08 19:45 43.66315 7.20996 21 ft 0 kts 285°
2026-05-08 19:51 43.66314 7.20990 25 ft 4 kts 262°
2026-05-08 19:51 43.66263 7.20995 23 ft 9 kts 167°
2026-05-08 19:51 43.66198 7.21013 21 ft 12 kts 171°
2026-05-08 19:51 43.66110 7.21032 24 ft 13 kts 171°
2026-05-08 19:52 43.66048 7.21047 23 ft 9 kts 170°
2026-05-08 19:52 43.65987 7.21063 22 ft 9 kts 161°
2026-05-08 19:52 43.65955 7.21128 21 ft 9 kts 90°
2026-05-08 19:52 43.65990 7.21195 21 ft 9 kts 46°
2026-05-08 19:53 43.66079 7.21320 21 ft 10 kts 44°
2026-05-08 19:53 43.66129 7.21388 21 ft 11 kts 44°
2026-05-08 19:53 43.66197 7.21481 21 ft 15 kts 46°
2026-05-08 19:54 43.66264 7.21573 21 ft 12 kts 44°
2026-05-08 19:54 43.66325 7.21655 21 ft 12 kts 44°
2026-05-08 19:54 43.66384 7.21739 21 ft 12 kts 46°
2026-05-08 19:54 43.66444 7.21821 21 ft 12 kts 45°
2026-05-08 19:55 43.66503 7.21901 21 ft 12 kts 44°
2026-05-08 19:55 43.66562 7.21983 21 ft 12 kts 45°
2026-05-08 19:55 43.66638 7.22088 21 ft 23 kts 45°
2026-05-08 19:55 43.66765 7.22261 22 ft 22 kts 45°
2026-05-08 19:56 43.66821 7.22370 21 ft 11 kts 94°
2026-05-08 19:56 43.66778 7.22445 21 ft 10 kts 135°
2026-05-08 19:56 43.66726 7.22516 20 ft 10 kts 135°
2026-05-08 19:56 43.66673 7.22588 21 ft 11 kts 135°
2026-05-08 19:57 43.66617 7.22666 21 ft 11 kts 135°
2026-05-08 19:57 43.66562 7.22741 22 ft 11 kts 135°
2026-05-08 19:57 43.66508 7.22767 22 ft 9 kts 208°
2026-05-08 19:57 43.66495 7.22751 23 ft 0 kts 224°
2026-05-08 19:58 43.66491 7.22746 23 ft 1 kts 225°
2026-05-08 19:58 43.66480 7.22729 22 ft 7 kts 225°
2026-05-08 19:58 43.66288 7.22464 28 ft 85 kts 224°
2026-05-08 19:59 43.65658 7.21590 28 ft 166 kts 225°
2026-05-08 19:59 43.64748 7.20324 487 ft 199 kts 225°
2026-05-08 19:59 43.63707 7.18901 1239 ft 223 kts 225°
2026-05-08 19:59 43.62565 7.17332 2203 ft 238 kts 225°
2026-05-08 20:00 43.61359 7.15752 3425 ft 241 kts 216°
2026-05-08 20:00 43.59837 7.15056 5029 ft 232 kts 179°
2026-05-08 20:00 43.58204 7.15619 5949 ft 257 kts 155°
2026-05-08 20:00 43.56575 7.16899 6750 ft 283 kts 147°
2026-05-08 20:01 43.55004 7.18716 7545 ft 307 kts 127°
2026-05-08 20:01 43.53807 7.21202 8650 ft 316 kts 125°
2026-05-08 20:01 43.52458 7.23630 9853 ft 322 kts 130°
2026-05-08 20:01 43.50969 7.25978 11032 ft 327 kts 132°
2026-05-08 20:02 43.49408 7.28296 12135 ft 334 kts 133°
2026-05-08 20:02 43.47705 7.30506 12694 ft 338 kts 141°
2026-05-08 20:02 43.45808 7.32336 12920 ft 338 kts 149°
2026-05-08 20:02 43.43745 7.33899 12993 ft 339 kts 152°
2026-05-08 20:03 43.41677 7.35454 13009 ft 339 kts 151°
2026-05-08 20:03 43.39618 7.37026 13010 ft 338 kts 151°
2026-05-08 20:03 43.37560 7.38604 13007 ft 338 kts 151°
2026-05-08 20:03 43.35504 7.40179 13010 ft 338 kts 151°
2026-05-08 20:04 43.33453 7.41746 13008 ft 338 kts 151°
2026-05-08 20:04 43.31575 7.43158 13013 ft 347 kts 152°
2026-05-08 20:04 43.29483 7.44729 13008 ft 341 kts 151°
2026-05-08 20:04 43.27440 7.46275 13010 ft 342 kts 151°
2026-05-08 20:05 43.25295 7.47902 13010 ft 358 kts 151°
2026-05-08 20:05 43.23109 7.49559 13008 ft 361 kts 151°
2026-05-08 20:05 43.20905 7.51232 13008 ft 362 kts 151°
2026-05-08 20:05 43.18707 7.52901 13009 ft 362 kts 151°
2026-05-08 20:06 43.16500 7.54573 13009 ft 362 kts 151°
2026-05-08 20:06 43.14391 7.56439 13012 ft 362 kts 142°
2026-05-08 20:06 43.12561 7.58811 13009 ft 362 kts 131°
2026-05-08 20:06 43.11104 7.61566 13007 ft 363 kts 121°
2026-05-08 20:07 43.10021 7.64683 13012 ft 363 kts 110°
2026-05-08 20:07 43.09386 7.68009 13011 ft 363 kts 99°
2026-05-08 20:07 43.08987 7.71421 13012 ft 363 kts 99°
2026-05-08 20:07 43.08577 7.74819 13009 ft 363 kts 99°
2026-05-08 20:08 43.08156 7.78228 13013 ft 363 kts 99°
2026-05-08 20:08 43.07736 7.81639 13014 ft 363 kts 99°
2026-05-08 20:08 43.07336 7.85043 13010 ft 363 kts 99°
2026-05-08 20:08 43.06952 7.88410 13017 ft 363 kts 99°
2026-05-08 20:09 43.06569 7.91818 13018 ft 363 kts 98°
2026-05-08 20:09 43.06187 7.95238 13017 ft 363 kts 98°
2026-05-08 20:09 43.05801 7.98645 13013 ft 363 kts 99°
2026-05-08 20:09 43.05409 8.02063 13018 ft 363 kts 99°
2026-05-08 20:10 43.05016 8.05468 13020 ft 363 kts 99°
2026-05-08 20:10 43.04621 8.08886 13014 ft 364 kts 99°
2026-05-08 20:10 43.04224 8.12306 13018 ft 364 kts 99°
2026-05-08 20:10 43.03832 8.15676 13026 ft 364 kts 99°
2026-05-08 20:11 43.03437 8.19085 13023 ft 364 kts 99°
2026-05-08 20:11 43.03039 8.22508 13020 ft 364 kts 99°
2026-05-08 20:11 43.02640 8.25917 13019 ft 364 kts 99°
2026-05-08 20:11 43.02238 8.29328 13029 ft 364 kts 99°
2026-05-08 20:12 43.01832 8.32747 13032 ft 364 kts 99°
2026-05-08 20:12 43.01425 8.36165 13021 ft 364 kts 99°
2026-05-08 20:12 43.01004 8.39565 13022 ft 364 kts 100°
2026-05-08 20:12 43.00537 8.42967 13021 ft 364 kts 101°
2026-05-08 20:13 43.00054 8.46312 13018 ft 364 kts 101°
2026-05-08 20:13 42.99556 8.49692 13022 ft 364 kts 101°
2026-05-08 20:13 42.99057 8.53085 13025 ft 364 kts 101°
2026-05-08 20:13 42.98566 8.56467 13028 ft 364 kts 101°
2026-05-08 20:14 42.98079 8.59863 13028 ft 364 kts 101°
2026-05-08 20:14 42.97593 8.63244 13025 ft 364 kts 101°
2026-05-08 20:14 42.97107 8.66638 13018 ft 364 kts 101°
2026-05-08 20:14 42.96621 8.70031 13023 ft 364 kts 101°
2026-05-08 20:15 42.96134 8.73410 13030 ft 364 kts 101°
2026-05-08 20:15 42.95552 8.76718 13018 ft 363 kts 108°
2026-05-08 20:15 42.94592 8.79910 13022 ft 363 kts 117°
2026-05-08 20:15 42.93275 8.82838 13023 ft 363 kts 126°
2026-05-08 20:16 42.91751 8.85592 13021 ft 363 kts 127°
2026-05-08 20:16 42.90234 8.88338 13022 ft 363 kts 127°
2026-05-08 20:16 42.88716 8.91098 13024 ft 363 kts 127°
2026-05-08 20:16 42.87205 8.93847 13021 ft 363 kts 127°
2026-05-08 20:17 42.85687 8.96604 13022 ft 363 kts 127°
2026-05-08 20:17 42.84188 8.99316 13020 ft 363 kts 127°
2026-05-08 20:17 42.82671 9.02056 13023 ft 363 kts 127°
2026-05-08 20:17 42.81149 9.04806 13023 ft 363 kts 127°
2026-05-08 20:18 42.79627 9.07554 13020 ft 363 kts 127°
2026-05-08 20:18 42.78110 9.10296 13013 ft 363 kts 127°
2026-05-08 20:18 42.76587 9.13044 13006 ft 363 kts 127°
2026-05-08 20:18 42.75070 9.15777 13006 ft 363 kts 127°
2026-05-08 20:19 42.73546 9.18519 13008 ft 363 kts 127°
2026-05-08 20:19 42.72044 9.21217 13008 ft 363 kts 127°
2026-05-08 20:19 42.70524 9.23944 13010 ft 363 kts 127°
2026-05-08 20:19 42.68996 9.26680 13011 ft 363 kts 127°
2026-05-08 20:20 42.67471 9.29405 13010 ft 363 kts 127°
2026-05-08 20:20 42.65940 9.32139 12900 ft 364 kts 127°
2026-05-08 20:20 42.64427 9.34839 12394 ft 349 kts 127°
2026-05-08 20:20 42.63015 9.37366 11907 ft 326 kts 127°
2026-05-08 20:21 42.61682 9.39750 11406 ft 308 kts 127°
2026-05-08 20:21 42.60436 9.41980 10912 ft 293 kts 127°
2026-05-08 20:21 42.59212 9.44113 10413 ft 281 kts 131°
2026-05-08 20:21 42.57844 9.45944 9846 ft 273 kts 140°
2026-05-08 20:22 42.56319 9.47423 9234 ft 267 kts 150°
2026-05-08 20:22 42.54685 9.48534 8731 ft 258 kts 158°
2026-05-08 20:22 42.53018 9.49301 8237 ft 249 kts 163°
2026-05-08 20:22 42.51380 9.49982 7735 ft 242 kts 163°
2026-05-08 20:23 42.49786 9.50649 7235 ft 237 kts 163°
2026-05-08 20:23 42.48234 9.51300 6723 ft 232 kts 163°
2026-05-08 20:23 42.46728 9.51932 6243 ft 228 kts 163°
2026-05-08 20:23 42.45222 9.52564 5734 ft 225 kts 163°
2026-05-08 20:24 42.43741 9.53184 5236 ft 222 kts 163°
2026-05-08 20:24 42.42270 9.53799 4732 ft 220 kts 163°
2026-05-08 20:24 42.40818 9.54406 4230 ft 218 kts 163°
2026-05-08 20:24 42.39372 9.55010 3728 ft 216 kts 163°
2026-05-08 20:25 42.37942 9.55607 3221 ft 215 kts 163°
2026-05-08 20:25 42.36550 9.56188 3018 ft 200 kts 163°
2026-05-08 20:25 42.35268 9.56723 3012 ft 194 kts 163°
2026-05-08 20:25 42.33981 9.57259 3014 ft 194 kts 163°
2026-05-08 20:26 42.32690 9.57797 3015 ft 194 kts 163°
2026-05-08 20:26 42.31405 9.58331 3018 ft 192 kts 163°
2026-05-08 20:26 42.30132 9.58861 3018 ft 190 kts 163°
2026-05-08 20:26 42.28872 9.59385 3016 ft 189 kts 163°
2026-05-08 20:27 42.27614 9.59907 3015 ft 189 kts 163°
2026-05-08 20:27 42.26359 9.60429 3017 ft 189 kts 163°
2026-05-08 20:27 42.25099 9.60953 3015 ft 189 kts 163°
2026-05-08 20:27 42.23857 9.61469 3015 ft 189 kts 163°
2026-05-08 20:28 42.22603 9.61992 3015 ft 189 kts 163°
2026-05-08 20:28 42.21344 9.62520 3019 ft 189 kts 162°
2026-05-08 20:28 42.20260 9.63477 3019 ft 190 kts 128°
2026-05-08 20:28 42.19807 9.65122 3022 ft 190 kts 91°
2026-05-08 20:29 42.20167 9.66801 3017 ft 190 kts 54°
2026-05-08 20:29 42.21194 9.67870 3023 ft 190 kts 18°
2026-05-08 20:29 42.22502 9.67910 3018 ft 196 kts 341°
2026-05-08 20:29 42.23576 9.66791 3026 ft 196 kts 308°
2026-05-08 20:30 42.24469 9.65423 3014 ft 197 kts 312°
2026-05-08 20:30 42.25405 9.64064 3015 ft 197 kts 312°
2026-05-08 20:30 42.26335 9.62713 3033 ft 197 kts 312°
2026-05-08 20:30 42.27268 9.61359 3027 ft 197 kts 312°
2026-05-08 20:31 42.28261 9.60101 3014 ft 197 kts 324°
2026-05-08 20:31 42.29479 9.59248 3014 ft 197 kts 337°
2026-05-08 20:31 42.30770 9.58624 3016 ft 198 kts 341°
2026-05-08 20:31 42.32082 9.58060 3013 ft 198 kts 342°
2026-05-08 20:32 42.33378 9.57518 3014 ft 198 kts 342°
2026-05-08 20:32 42.34687 9.56973 3014 ft 197 kts 342°
2026-05-08 20:32 42.35997 9.56427 3017 ft 192 kts 342°
2026-05-08 20:32 42.37209 9.55922 3022 ft 175 kts 342°
2026-05-08 20:33 42.38351 9.55446 3015 ft 170 kts 342°
2026-05-08 20:33 42.39467 9.54981 2942 ft 167 kts 342°
2026-05-08 20:33 42.40577 9.54518 2777 ft 163 kts 342°
2026-05-08 20:33 42.41603 9.54090 2590 ft 152 kts 342°
2026-05-08 20:34 42.42593 9.53677 2403 ft 147 kts 342°
2026-05-08 20:34 42.43569 9.53269 2207 ft 146 kts 342°
2026-05-08 20:34 42.45494 9.52464 1826 ft 144 kts 342°
2026-05-08 20:35 42.46445 9.52067 1737 ft 143 kts 342°
2026-05-08 20:35 42.47400 9.51675 1731 ft 143 kts 342°
2026-05-08 20:35 42.48352 9.51291 1815 ft 142 kts 342°
2026-05-08 20:35 42.49293 9.50909 1916 ft 144 kts 342°
2026-05-08 20:36 42.50230 9.50521 1800 ft 139 kts 342°
2026-05-08 20:36 42.51200 9.50090 1114 ft 153 kts 340°
2026-05-08 20:36 42.52217 9.49647 572 ft 152 kts 343°
2026-05-08 20:36 42.53175 9.49240 361 ft 139 kts 340°
2026-05-08 20:37 42.54081 9.48867 136 ft 136 kts 342°
2026-05-08 20:37 42.54894 9.48482 41 ft 102 kts 358°
2026-05-08 20:37 42.55410 9.48351 38 ft 55 kts 340°
2026-05-08 20:37 42.55724 9.48176 32 ft 49 kts 348°
2026-05-08 20:38 42.55959 9.48072 32 ft 20 kts 313°
2026-05-08 20:38 42.55941 9.47912 33 ft 19 kts 248°
2026-05-08 20:38 42.55832 9.47891 33 ft 18 kts 153°
2026-05-08 20:38 42.55514 9.48019 36 ft 102 kts 162°
2026-05-08 20:39 42.55021 9.48226 38 ft 24 kts 164°
2026-05-08 20:39 42.54942 9.48156 39 ft 25 kts 269°
2026-05-08 20:39 42.54923 9.47942 38 ft 14 kts 231°
2026-05-08 20:39 42.40906 9.54381 2731 ft 149 kts 342°
2026-05-08 20:40 42.53146 9.49254 373 ft 140 kts 340°
2026-05-08 20:40 42.53867 9.48952 213 ft 136 kts 343°
2026-05-08 20:40 42.55009 9.48455 41 ft 75 kts 355°
2026-05-08 20:40 42.52354 9.49594 545 ft 149 kts 343°
2026-05-08 20:41 42.53299 9.49184 326 ft 138 kts 341°
2026-05-08 20:41 42.54205 9.48813 93 ft 136 kts 341°
2026-05-08 20:41 42.54990 9.48458 41 ft 94 kts 353°
2026-05-08 20:41 42.55489 9.48607 36 ft 50 kts 29°
2026-05-08 20:42 42.55612 9.48753 35 ft 19 kts 57°